| time (UTC) | temp C | wind direction | speed KPH | gust KPH | rain 1hr cm | rain 24hr cm | rain mn cm | humidity % | barometer mb |
| 20260507103639 | 7 | 158 | 0.0 | 0.0 | 0.13 | 0.08 | 0.08 | 97 | 1037.1 |
| 20260507103504 | 7 | 182 | 0.0 | 0.0 | 0.10 | 0.00 | 0.05 | 97 | 1008.5 |
| 20260507103136 | 7 | 191 | 0.0 | 0.0 | 0.13 | 0.08 | 0.08 | 97 | 1036.9 |
| 20260507103002 | 7 | 188 | 0.0 | 0.0 | 0.00 | 0.00 | 0.05 | 97 | 1008.3 |
| 20260507102632 | 7 | 190 | 0.0 | 1.6 | 0.00 | 0.05 | 0.05 | 97 | 1037.2 |
| 20260507102503 | 7 | 188 | 1.6 | 3.2 | 0.00 | 0.00 | 0.05 | 97 | 1008.4 |
| 20260507102128 | 7 | 204 | 1.6 | 3.2 | 0.00 | 0.05 | 0.05 | 97 | 1036.8 |
| 20260507102002 | 7 | 178 | 0.0 | 0.0 | 0.00 | 0.00 | 0.05 | 97 | 1008.2 |
| 20260507101624 | 7 | 175 | 0.0 | 1.6 | 0.00 | 0.05 | 0.05 | 97 | 1036.8 |
| 20260507101503 | 7 | 179 | 0.0 | 0.0 | 0.00 | 0.00 | 0.05 | 97 | 1008.0 |
| 20260507101120 | 7 | 189 | 0.0 | 0.0 | 0.00 | 0.05 | 0.05 | 97 | 1036.5 |
| 20260507101003 | 7 | 191 | 0.0 | 0.0 | 0.00 | 0.00 | 0.05 | 97 | 1007.6 |
| 20260507100618 | 7 | 237 | 0.0 | 1.6 | 0.00 | 0.05 | 0.05 | 97 | 1036.6 |
| 20260507100116 | 7 | 164 | 0.0 | 1.6 | 0.00 | 0.05 | 0.05 | 97 | 1036.5 |
| 20260507100003 | 7 | 181 | 0.0 | 0.0 | 0.00 | 0.00 | 0.05 | 97 | 1007.9 |
| 20260507095614 | 7 | 164 | 0.0 | 0.0 | 0.00 | 0.05 | 0.05 | 97 | 1036.6 |
| 20260507095110 | 7 | 185 | 0.0 | 0.0 | 0.00 | 0.05 | 0.05 | 97 | 1036.6 |
| 20260507095003 | 7 | 184 | 0.0 | 0.0 | 0.00 | 0.00 | 0.05 | 97 | 1007.9 |
| 20260507094606 | 7 | 216 | 0.0 | 0.0 | 0.00 | 0.05 | 0.05 | 97 | 1036.4 |
| 20260507094502 | 7 | 224 | 0.0 | 0.0 | 0.00 | 0.00 | 0.05 | 97 | 1007.7 |
| 20260507094103 | 7 | 191 | 0.0 | 0.0 | 0.00 | 0.05 | 0.05 | 97 | 1036.6 |
| 20260507094003 | 7 | 191 | 1.6 | 3.2 | 0.00 | 0.00 | 0.05 | 97 | 1007.7 |
| 20260507093601 | 7 | 182 | 0.0 | 0.0 | 0.00 | 0.05 | 0.05 | 97 | 1036.5 |
| 20260507093503 | 7 | 161 | 1.6 | 3.2 | 0.00 | 0.00 | 0.05 | 97 | 1007.7 |
| 20260507093059 | 7 | 200 | 1.6 | 1.6 | 0.00 | 0.05 | 0.05 | 97 | 1036.4 |
| 20260507093003 | 7 | 352 | 1.6 | 3.2 | 0.00 | 0.00 | 0.05 | 97 | 1007.6 |
| 20260507092555 | 8 | 127 | 1.6 | 1.6 | 0.00 | 0.05 | 0.05 | 97 | 1036.2 |
| 20260507092502 | 8 | 323 | 8.0 | 9.7 | 0.00 | 0.00 | 0.05 | 97 | 1007.5 |
| 20260507092052 | 8 | 138 | 0.0 | 1.6 | 0.00 | 0.05 | 0.05 | 97 | 1036.4 |
| 20260507092003 | 8 | 178 | 0.0 | 0.0 | 0.00 | 0.00 | 0.05 | 98 | 1008.0 |
| 20260507091549 | 8 | 186 | 0.0 | 0.0 | 0.00 | 0.05 | 0.05 | 97 | 1036.4 |
| 20260507091502 | 8 | 186 | 0.0 | 0.0 | 0.00 | 0.00 | 0.05 | 97 | 1007.8 |
| 20260507091045 | 8 | 186 | 0.0 | 1.6 | 0.00 | 0.05 | 0.05 | 97 | 1036.7 |
| 20260507090541 | 8 | 194 | 0.0 | 1.6 | 0.00 | 0.05 | 0.05 | 97 | 1036.6 |
| 20260507090503 | 8 | 194 | 1.6 | 3.2 | 0.00 | 0.00 | 0.05 | 97 | 1007.9 |
| 20260507090038 | 8 | 183 | 0.0 | 0.0 | 0.00 | 0.05 | 0.05 | 97 | 1036.6 |
| 20260507090004 | 8 | 183 | 0.0 | 0.0 | 0.00 | 0.00 | 0.05 | 97 | 1007.9 |
| 20260507085535 | 8 | 125 | 0.0 | 0.0 | 0.00 | 0.05 | 0.05 | 97 | 1036.8 |
| 20260507085502 | 8 | 125 | 0.0 | 0.0 | 0.00 | 0.00 | 0.05 | 97 | 1008.1 |
| 20260507085032 | 8 | 13 | 0.0 | 0.0 | 0.00 | 0.05 | 0.05 | 97 | 1036.8 |
| 20260507084528 | 8 | 353 | 0.0 | 0.0 | 0.00 | 0.05 | 0.05 | 97 | 1037.2 |
| 20260507084026 | 8 | 283 | 0.0 | 0.0 | 0.00 | 0.05 | 0.05 | 97 | 1037.3 |
| 20260507084003 | 8 | 283 | 0.0 | 0.0 | 0.00 | 0.00 | 0.05 | 97 | 1008.6 |
| 20260507083521 | 8 | 164 | 0.0 | 0.0 | 0.00 | 0.05 | 0.05 | 97 | 1037.3 |
| 20260507083502 | 8 | 164 | 0.0 | 0.0 | 0.00 | 0.00 | 0.05 | 97 | 1008.6 |
| 20260507083019 | 8 | 153 | 0.0 | 0.0 | 0.00 | 0.05 | 0.05 | 97 | 1037.0 |
| 20260507083003 | 8 | 153 | 0.0 | 0.0 | 0.00 | 0.00 | 0.05 | 97 | 1008.3 |
| 20260507082515 | 8 | 143 | 0.0 | 1.6 | 0.00 | 0.05 | 0.05 | 97 | 1036.7 |
| 20260507082502 | 8 | 143 | 1.6 | 3.2 | 0.00 | 0.00 | 0.05 | 97 | 1008.0 |
| 20260507082011 | 8 | 189 | 0.0 | 0.0 | 0.00 | 0.05 | 0.05 | 97 | 1036.9 |
| 20260507082003 | 8 | 189 | 0.0 | 0.0 | 0.00 | 0.00 | 0.05 | 97 | 1008.2 |
| 20260507081508 | 8 | 185 | 0.0 | 0.0 | 0.00 | 0.05 | 0.05 | 97 | 1037.0 |
| 20260507081502 | 8 | 185 | 0.0 | 0.0 | 0.00 | 0.00 | 0.05 | 97 | 1008.3 |
| 20260507081004 | 8 | 208 | 0.0 | 1.6 | 0.00 | 0.05 | 0.05 | 97 | 1036.9 |
| 20260507080503 | 8 | 225 | 1.6 | 4.8 | 0.00 | 0.00 | 0.05 | 97 | 1007.8 |
| 20260507080500 | 8 | 225 | 1.6 | 3.2 | 0.00 | 0.05 | 0.05 | 97 | 1036.5 |
| 20260507080002 | 8 | 205 | 0.0 | 0.0 | 0.00 | 0.00 | 0.05 | 97 | 1008.0 |
| 20260507075956 | 8 | 205 | 0.0 | 0.0 | 0.00 | 0.05 | 0.05 | 97 | 1036.7 |
| 20260507075502 | 8 | 206 | 1.6 | 3.2 | 0.00 | 0.00 | 0.05 | 97 | 1007.8 |
| 20260507075452 | 8 | 206 | 1.6 | 1.6 | 0.00 | 0.05 | 0.05 | 97 | 1036.5 |
| 20260507075003 | 8 | 192 | 0.0 | 0.0 | 0.00 | 0.00 | 0.05 | 97 | 1007.8 |
| 20260507074949 | 8 | 192 | 0.0 | 0.0 | 0.00 | 0.05 | 0.05 | 97 | 1036.5 |
| 20260507074502 | 8 | 192 | 1.6 | 3.2 | 0.00 | 0.00 | 0.05 | 96 | 1008.1 |
| 20260507074446 | 8 | 192 | 0.0 | 1.6 | 0.00 | 0.05 | 0.05 | 96 | 1036.8 |
| 20260507074003 | 8 | 187 | 1.6 | 3.2 | 0.10 | 0.00 | 0.05 | 96 | 1008.0 |
| 20260507073944 | 8 | 190 | 0.0 | 0.0 | 0.13 | 0.05 | 0.05 | 96 | 1036.8 |
| 20260507073440 | 8 | 218 | 1.6 | 1.6 | 0.13 | 0.05 | 0.05 | 95 | 1036.8 |
| 20260507073002 | 8 | 200 | 1.6 | 3.2 | 0.00 | 0.00 | 0.03 | 95 | 1008.0 |
| 20260507072936 | 8 | 213 | 0.0 | 0.0 | 0.00 | 0.03 | 0.03 | 95 | 1036.6 |
| 20260507072503 | 8 | 327 | 4.8 | 6.4 | 0.00 | 0.00 | 0.03 | 95 | 1007.9 |
| 20260507072434 | 8 | 204 | 1.6 | 1.6 | 0.00 | 0.03 | 0.03 | 95 | 1036.6 |
| 20260507071932 | 8 | 238 | 0.0 | 1.6 | 0.18 | 0.03 | 0.03 | 94 | 1036.9 |
| 20260507071503 | 8 | 237 | 1.6 | 3.2 | 0.18 | 0.00 | 0.03 | 93 | 1007.7 |
| 20260507071428 | 8 | 177 | 0.0 | 1.6 | 0.18 | 0.03 | 0.03 | 93 | 1036.6 |
| 20260507070925 | 8 | 221 | 0.0 | 1.6 | 0.00 | 0.00 | 0.00 | 93 | 1036.5 |
| 20260507070423 | 8 | 215 | 0.0 | 0.0 | 0.00 | 0.00 | 0.00 | 92 | 1036.5 |
| 20260507065919 | 8 | 217 | 0.0 | 1.6 | 0.00 | 0.00 | 0.00 | 92 | 1036.3 |
| 20260507065502 | 8 | 191 | 0.0 | 0.0 | 0.00 | 0.00 | 0.00 | 91 | 1007.7 |
| 20260507065416 | 8 | 214 | 0.0 | 1.6 | 0.00 | 0.00 | 0.00 | 92 | 1036.3 |
| 20260507065003 | 8 | 181 | 1.6 | 3.2 | 0.00 | 0.00 | 0.00 | 91 | 1007.4 |
| 20260507064913 | 8 | 174 | 0.0 | 0.0 | 0.00 | 0.00 | 0.00 | 91 | 1036.0 |
| 20260507064502 | 8 | 202 | 3.2 | 3.2 | 0.00 | 0.00 | 0.00 | 90 | 1007.3 |
| 20260507064411 | 8 | 203 | 0.0 | 0.0 | 0.00 | 0.00 | 0.00 | 90 | 1036.0 |
| 20260507064002 | 9 | 306 | 3.2 | 4.8 | 0.00 | 0.00 | 0.00 | 89 | 1007.3 |
| 20260507063909 | 9 | 205 | 3.2 | 3.2 | 0.00 | 0.00 | 0.00 | 89 | 1036.0 |
| 20260507063503 | 9 | 131 | 0.0 | 0.0 | 0.00 | 0.00 | 0.00 | 88 | 1007.2 |
| 20260507063406 | 8 | 211 | 0.0 | 0.0 | 0.00 | 0.00 | 0.00 | 89 | 1036.0 |
| 20260507063003 | 9 | 207 | 1.6 | 3.2 | 0.00 | 0.00 | 0.00 | 89 | 1007.1 |
| 20260507062903 | 9 | 209 | 0.0 | 0.0 | 0.00 | 0.00 | 0.00 | 88 | 1035.7 |
| 20260507062503 | 9 | 24 | 0.0 | 0.0 | 0.00 | 0.00 | 0.00 | 87 | 1007.3 |
| 20260507062359 | 9 | 227 | 1.6 | 3.2 | 0.00 | 0.00 | 0.00 | 88 | 1035.7 |
| 20260507061857 | 9 | 69 | 1.6 | 1.6 | 0.00 | 0.00 | 0.00 | 88 | 1035.8 |
| 20260507061503 | 9 | 2 | 0.0 | 0.0 | 0.00 | 0.00 | 0.00 | 89 | 1007.5 |
| 20260507061355 | 9 | 276 | 3.2 | 4.8 | 0.00 | 0.00 | 0.00 | 89 | 1036.1 |
| 20260507061003 | 9 | 66 | 6.4 | 8.0 | 0.00 | 0.00 | 0.00 | 90 | 1007.5 |
| 20260507060853 | 9 | 18 | 0.0 | 0.0 | 0.00 | 0.00 | 0.00 | 90 | 1036.2 |
| 20260507060502 | 9 | 237 | 1.6 | 3.2 | 0.00 | 0.00 | 0.00 | 91 | 1007.5 |
| 20260507060349 | 9 | 332 | 0.0 | 1.6 | 0.00 | 0.00 | 0.00 | 92 | 1036.3 |
| 20260507060003 | 9 | 258 | 0.0 | 0.0 | 0.00 | 0.00 | 0.00 | 91 | 1007.7 |
| 20260507055846 | 10 | 301 | 3.2 | 4.8 | 0.00 | 0.00 | 0.00 | 92 | 1036.3 |
| 20260507055502 | 9 | 214 | 1.6 | 3.2 | 0.00 | 0.00 | 0.00 | 92 | 1007.7 |
| 20260507055341 | 9 | 142 | 3.2 | 3.2 | 0.00 | 0.00 | 0.00 | 92 | 1036.1 |
| 20260507055003 | 10 | 178 | 1.6 | 3.2 | 0.00 | 0.00 | 0.00 | 93 | 1007.6 |
| 20260507054839 | 10 | 104 | 0.0 | 1.6 | 0.00 | 0.00 | 0.00 | 93 | 1036.0 |
| 20260507054503 | 10 | 269 | 1.6 | 3.2 | 0.00 | 0.00 | 0.00 | 93 | 1007.3 |
| 20260507054334 | 10 | 183 | 1.6 | 1.6 | 0.00 | 0.00 | 0.00 | 94 | 1036.1 |
| 20260507054002 | 10 | 106 | 1.6 | 3.2 | 0.00 | 0.00 | 0.00 | 95 | 1007.6 |
| 20260507053832 | 10 | 191 | 1.6 | 1.6 | 0.00 | 0.00 | 0.00 | 95 | 1036.3 |
| 20260507053502 | 10 | 21 | 0.0 | 0.0 | 0.00 | 0.00 | 0.00 | 94 | 1007.7 |
| 20260507053329 | 10 | 261 | 0.0 | 1.6 | 0.00 | 0.00 | 0.00 | 95 | 1036.2 |
| 20260507053003 | 10 | 100 | 1.6 | 3.2 | 0.00 | 0.00 | 0.00 | 95 | 1007.8 |
| 20260507052828 | 10 | 246 | 1.6 | 1.6 | 0.00 | 0.00 | 0.00 | 95 | 1036.4 |
| 20260507052502 | 10 | 195 | 1.6 | 3.2 | 0.00 | 0.00 | 0.00 | 95 | 1008.0 |
| 20260507052324 | 10 | 209 | 0.0 | 0.0 | 0.00 | 0.00 | 0.00 | 95 | 1036.4 |
| 20260507052003 | 10 | 207 | 1.6 | 3.2 | 0.00 | 0.00 | 0.00 | 95 | 1008.1 |
| 20260507051822 | 10 | 228 | 1.6 | 1.6 | 0.00 | 0.00 | 0.00 | 96 | 1036.7 |
| 20260507051502 | 10 | 71 | 1.6 | 3.2 | 0.00 | 0.00 | 0.00 | 95 | 1008.1 |
| 20260507051320 | 10 | 197 | 0.0 | 1.6 | 0.00 | 0.00 | 0.00 | 96 | 1036.6 |
| 20260507051003 | 10 | 251 | 1.6 | 3.2 | 0.00 | 0.00 | 0.00 | 96 | 1008.0 |
| 20260507050816 | 10 | 73 | 1.6 | 3.2 | 0.00 | 0.00 | 0.00 | 96 | 1036.7 |
| 20260507050313 | 10 | 146 | 3.2 | 3.2 | 0.00 | 0.00 | 0.00 | 96 | 1036.6 |
| 20260507050003 | 10 | 269 | 1.6 | 3.2 | 0.00 | 0.00 | 0.00 | 96 | 1007.9 |
| 20260507045810 | 10 | 207 | 3.2 | 3.2 | 0.00 | 0.00 | 0.00 | 97 | 1036.5 |
| 20260507045503 | 10 | 180 | 1.6 | 3.2 | 0.00 | 0.00 | 0.00 | 97 | 1007.9 |
| 20260507045307 | 10 | 223 | 1.6 | 1.6 | 0.00 | 0.00 | 0.00 | 97 | 1036.5 |
| 20260507044803 | 10 | 206 | 0.0 | 0.0 | 0.00 | 0.00 | 0.00 | 98 | 1036.4 |
| 20260507044503 | 10 | 205 | 0.0 | 0.0 | 0.00 | 0.00 | 0.00 | 98 | 1007.8 |
| 20260507044300 | 10 | 264 | 0.0 | 1.6 | 0.00 | 0.00 | 0.00 | 98 | 1036.4 |
| 20260507043756 | 10 | 161 | 0.0 | 0.0 | 0.00 | 0.00 | 0.00 | 98 | 1036.4 |
| 20260507043502 | 10 | 58 | 0.0 | 0.0 | 0.00 | 0.00 | 0.00 | 98 | 1007.5 |
| 20260507043253 | 10 | 148 | 0.0 | 0.0 | 0.00 | 0.00 | 0.00 | 99 | 1036.3 |
| 20260507043002 | 11 | 357 | 3.2 | 6.4 | 0.00 | 0.00 | 0.00 | 99 | 1007.9 |
| 20260507042749 | 11 | 187 | 4.8 | 8.0 | 0.00 | 0.00 | 0.00 | 99 | 1036.3 |
| 20260507042503 | 11 | 202 | 3.2 | 4.8 | 0.00 | 0.00 | 0.00 | 99 | 1007.8 |
| 20260507042244 | 11 | 288 | 1.6 | 3.2 | 0.00 | 0.00 | 0.00 | 99 | 1036.6 |
| 20260507042003 | 11 | 202 | 0.0 | 0.0 | 0.00 | 0.00 | 0.00 | 99 | 1007.8 |
| 20260507041742 | 11 | 203 | 0.0 | 0.0 | 0.00 | 0.00 | 0.00 | 99 | 1036.3 |
| 20260507041238 | 11 | 191 | 0.0 | 0.0 | 0.00 | 0.00 | 0.00 | 99 | 1036.2 |
| 20260507041003 | 11 | 191 | 0.0 | 0.0 | 0.00 | 0.00 | 0.00 | 99 | 1007.5 |
| 20260507040735 | 11 | 136 | 0.0 | 0.0 | 0.00 | 0.00 | 0.00 | 99 | 1036.1 |
| 20260507040503 | 11 | 132 | 0.0 | 0.0 | 0.00 | 0.00 | 0.00 | 99 | 1007.3 |
| 20260507040231 | 11 | 169 | 0.0 | 0.0 | 0.00 | 0.00 | 0.00 | 99 | 1036.3 |
| 20260507035727 | 11 | 160 | 0.0 | 0.0 | 0.13 | 0.66 | 0.66 | 99 | 1036.1 |
| 20260507035503 | 11 | 172 | 1.6 | 3.2 | 0.10 | 0.66 | 0.66 | 99 | 1007.5 |
| 20260507035223 | 11 | 202 | 1.6 | 1.6 | 0.13 | 0.66 | 0.66 | 99 | 1036.4 |
| 20260507035002 | 11 | 205 | 3.2 | 4.8 | 0.00 | 0.64 | 0.64 | 99 | 1007.7 |
| 20260507034721 | 11 | 234 | 1.6 | 1.6 | 0.00 | 0.64 | 0.64 | 99 | 1036.4 |
| 20260507034503 | 11 | 241 | 3.2 | 4.8 | 0.00 | 0.64 | 0.64 | 99 | 1007.8 |
| 20260507034217 | 12 | 176 | 3.2 | 3.2 | 0.00 | 0.64 | 0.64 | 99 | 1036.4 |
| 20260507034002 | 12 | 199 | 3.2 | 4.8 | 0.00 | 0.00 | 0.64 | 99 | 1007.8 |
| 20260507033716 | 12 | 222 | 1.6 | 1.6 | 0.00 | 0.64 | 0.64 | 99 | 1036.3 |
| 20260507033502 | 12 | 202 | 3.2 | 3.2 | 0.00 | 0.00 | 0.64 | 99 | 1007.4 |
| 20260507033213 | 12 | 200 | 1.6 | 3.2 | 0.00 | 0.64 | 0.64 | 99 | 1036.1 |
| 20260507033003 | 12 | 42 | 1.6 | 3.2 | 0.00 | 0.00 | 0.64 | 99 | 1007.4 |
| 20260507032710 | 12 | 207 | 1.6 | 1.6 | 0.00 | 0.64 | 0.64 | 99 | 1036.2 |
| 20260507032503 | 12 | 181 | 3.2 | 4.8 | 0.00 | 0.00 | 0.64 | 99 | 1007.2 |
| 20260507032206 | 12 | 217 | 4.8 | 8.0 | 0.00 | 0.64 | 0.64 | 98 | 1036.1 |
| 20260507032003 | 12 | 215 | 4.8 | 8.0 | 0.00 | 0.00 | 0.64 | 98 | 1007.2 |
| 20260507031703 | 12 | 240 | 4.8 | 4.8 | 0.00 | 0.64 | 0.64 | 98 | 1035.8 |
| 20260507031502 | 12 | 222 | 1.6 | 3.2 | 0.00 | 0.00 | 0.64 | 98 | 1007.0 |
| 20260507031200 | 12 | 210 | 3.2 | 3.2 | 0.00 | 0.64 | 0.64 | 98 | 1035.9 |
| 20260507030656 | 12 | 181 | 3.2 | 4.8 | 0.00 | 0.64 | 0.64 | 98 | 1035.7 |
| 20260507030154 | 12 | 252 | 3.2 | 3.2 | 0.00 | 0.64 | 0.64 | 99 | 1035.7 |
| 20260507030002 | 12 | 219 | 1.6 | 3.2 | 0.00 | 0.00 | 0.64 | 99 | 1007.0 |
| 20260507025651 | 13 | 232 | 4.8 | 8.0 | 0.00 | 0.64 | 0.64 | 99 | 1035.6 |
| 20260507025148 | 13 | 109 | 0.0 | 0.0 | 0.00 | 0.64 | 0.64 | 99 | 1035.7 |
| 20260507024646 | 13 | 344 | 4.8 | 4.8 | 0.00 | 0.64 | 0.64 | 99 | 1035.4 |
| 20260507024143 | 13 | 216 | 1.6 | 3.2 | 0.00 | 0.64 | 0.64 | 99 | 1035.5 |
| 20260507023638 | 14 | 324 | 1.6 | 4.8 | 0.00 | 0.64 | 0.64 | 99 | 1035.6 |
| 20260507023502 | 14 | 88 | 1.6 | 3.2 | 0.00 | 0.00 | 0.64 | 99 | 1006.7 |
| 20260507023136 | 14 | 215 | 4.8 | 4.8 | 0.00 | 0.64 | 0.64 | 99 | 1035.3 |
| 20260507023003 | 14 | 348 | 3.2 | 6.4 | 0.00 | 0.00 | 0.64 | 99 | 1006.5 |
| 20260507022633 | 14 | 208 | 0.0 | 1.6 | 0.00 | 0.64 | 0.64 | 99 | 1035.1 |
| 20260507022502 | 14 | 217 | 3.2 | 8.0 | 0.00 | 0.00 | 0.64 | 99 | 1006.5 |
| 20260507022128 | 14 | 119 | 0.0 | 0.0 | 0.00 | 0.64 | 0.64 | 99 | 1035.4 |
| 20260507022003 | 14 | 214 | 3.2 | 4.8 | 0.00 | 0.00 | 0.64 | 99 | 1006.4 |
| 20260507021625 | 14 | 217 | 3.2 | 3.2 | 0.00 | 0.64 | 0.64 | 99 | 1035.5 |
| 20260507021503 | 14 | 44 | 1.6 | 4.8 | 0.00 | 0.00 | 0.64 | 99 | 1006.7 |
| 20260507021120 | 14 | 280 | 3.2 | 3.2 | 0.00 | 0.64 | 0.64 | 99 | 1035.2 |
| 20260507021002 | 14 | 243 | 3.2 | 4.8 | 0.00 | 0.00 | 0.64 | 99 | 1006.5 |
| 20260507020619 | 14 | 184 | 1.6 | 1.6 | 0.00 | 0.64 | 0.64 | 99 | 1035.2 |
| 20260507020503 | 14 | 204 | 3.2 | 4.8 | 0.00 | 0.00 | 0.64 | 99 | 1006.6 |
| 20260507020115 | 14 | 199 | 4.8 | 4.8 | 0.00 | 0.64 | 0.64 | 99 | 1035.3 |
| 20260507020002 | 14 | 49 | 6.4 | 8.0 | 0.00 | 0.00 | 0.64 | 99 | 1006.4 |
| 20260507015614 | 14 | 219 | 1.6 | 1.6 | 0.00 | 0.64 | 0.64 | 99 | 1035.1 |
| 20260507015503 | 14 | 16 | 0.0 | 0.0 | 0.00 | 0.00 | 0.64 | 99 | 1006.5 |
| 20260507015111 | 14 | 10 | 1.6 | 3.2 | 0.00 | 0.64 | 0.64 | 99 | 1034.9 |
| 20260507015003 | 14 | 205 | 1.6 | 3.2 | 0.00 | 0.00 | 0.64 | 99 | 1006.4 |
| 20260507014607 | 14 | 191 | 3.2 | 3.2 | 0.00 | 0.64 | 0.64 | 99 | 1035.0 |
| 20260507014103 | 14 | 169 | 6.4 | 8.0 | 0.00 | 0.64 | 0.64 | 99 | 1035.1 |
| 20260507014003 | 14 | 190 | 4.8 | 6.4 | 0.00 | 0.00 | 0.64 | 99 | 1006.3 |
| 20260507013559 | 14 | 128 | 0.0 | 1.6 | 0.00 | 0.64 | 0.64 | 99 | 1035.1 |
| 20260507013502 | 14 | 133 | 1.6 | 3.2 | 0.00 | 0.00 | 0.64 | 99 | 1006.5 |
| 20260507013057 | 14 | 113 | 1.6 | 3.2 | 0.00 | 0.64 | 0.64 | 99 | 1035.0 |
| 20260507013003 | 14 | 198 | 1.6 | 3.2 | 0.00 | 0.00 | 0.64 | 99 | 1006.6 |
| 20260507012554 | 14 | 200 | 4.8 | 8.0 | 0.00 | 0.64 | 0.64 | 99 | 1035.3 |
| 20260507012050 | 14 | 195 | 1.6 | 1.6 | 0.00 | 0.64 | 0.64 | 99 | 1035.1 |
| 20260507012003 | 14 | 189 | 1.6 | 4.8 | 0.00 | 0.00 | 0.64 | 99 | 1006.5 |
| 20260507011548 | 14 | 185 | 0.0 | 1.6 | 0.00 | 0.64 | 0.64 | 99 | 1034.9 |
| 20260507011044 | 14 | 183 | 0.0 | 1.6 | 0.00 | 0.64 | 0.64 | 99 | 1035.1 |
| 20260507011002 | 14 | 183 | 1.6 | 3.2 | 0.00 | 0.00 | 0.64 | 99 | 1006.4 |
| 20260507010539 | 14 | 231 | 3.2 | 3.2 | 0.00 | 0.64 | 0.64 | 99 | 1035.0 |
| 20260507010503 | 14 | 231 | 3.2 | 4.8 | 0.00 | 0.00 | 0.64 | 99 | 1006.3 |
| 20260507010035 | 14 | 181 | 0.0 | 0.0 | 0.00 | 0.64 | 0.64 | 99 | 1035.1 |
| 20260507010004 | 14 | 181 | 0.0 | 0.0 | 0.00 | 0.00 | 0.64 | 99 | 1006.4 |
| 20260507005533 | 14 | 207 | 3.2 | 3.2 | 0.00 | 0.64 | 0.64 | 99 | 1035.3 |
| 20260507005502 | 14 | 207 | 3.2 | 4.8 | 0.00 | 0.00 | 0.64 | 99 | 1006.6 |
| 20260507005029 | 14 | 194 | 1.6 | 3.2 | 0.00 | 0.64 | 0.64 | 99 | 1035.4 |
| 20260507005003 | 14 | 194 | 3.2 | 4.8 | 0.00 | 0.00 | 0.64 | 99 | 1006.7 |
| 20260507004526 | 14 | 99 | 4.8 | 8.0 | 0.00 | 0.64 | 0.64 | 99 | 1035.3 |
| 20260507004023 | 13 | 200 | 3.2 | 4.8 | 0.13 | 0.64 | 0.64 | 99 | 1035.1 |
| 20260507004003 | 13 | 200 | 4.8 | 6.4 | 0.10 | 0.00 | 0.64 | 99 | 1006.4 |
| 20260507003519 | 13 | 186 | 0.0 | 1.6 | 0.13 | 0.64 | 0.64 | 99 | 1035.1 |
| 20260507003502 | 13 | 186 | 1.6 | 3.2 | 0.10 | 0.00 | 0.64 | 99 | 1006.4 |
| 20260507003014 | 13 | 135 | 3.2 | 4.8 | 0.00 | 0.61 | 0.61 | 99 | 1035.1 |
| 20260507002511 | 13 | 169 | 1.6 | 1.6 | 0.00 | 0.61 | 0.61 | 99 | 1035.2 |
| 20260507002502 | 13 | 169 | 1.6 | 3.2 | 0.00 | 0.00 | 0.61 | 99 | 1006.5 |
| 20260507002007 | 13 | 187 | 0.0 | 0.0 | 0.00 | 0.61 | 0.61 | 99 | 1035.2 |
| 20260507002002 | 13 | 187 | 0.0 | 0.0 | 0.00 | 0.00 | 0.61 | 99 | 1006.5 |
| 20260507001503 | 13 | 142 | 1.6 | 1.6 | 0.00 | 0.61 | 0.61 | 99 | 1035.2 |
| 20260507001001 | 13 | 156 | 1.6 | 3.2 | 0.00 | 0.61 | 0.61 | 99 | 1035.1 |
| 20260507000502 | 13 | 181 | 4.8 | 6.4 | 0.00 | 0.00 | 0.61 | 99 | 1006.3 |
| 20260507000457 | 13 | 181 | 4.8 | 4.8 | 0.00 | 0.61 | 0.61 | 99 | 1035.0 |
| 20260507000003 | 13 | 331 | 0.0 | 0.0 | 0.00 | 0.00 | 0.61 | 99 | 1006.4 |
| 20260506235952 | 13 | 331 | 0.0 | 0.0 | 0.00 | 0.61 | 0.61 | 99 | 1035.1 |
| 20260506235503 | 13 | 209 | 3.2 | 4.8 | 0.00 | 0.00 | 0.61 | 99 | 1006.4 |
| 20260506235450 | 13 | 209 | 1.6 | 3.2 | 0.00 | 0.61 | 0.61 | 99 | 1035.1 |
| 20260506235002 | 13 | 134 | 1.6 | 3.2 | 0.00 | 0.00 | 0.61 | 99 | 1006.3 |
| 20260506234946 | 13 | 134 | 1.6 | 1.6 | 0.00 | 0.61 | 0.61 | 99 | 1035.0 |
| 20260506234502 | 13 | 158 | 3.2 | 4.8 | 0.00 | 0.00 | 0.61 | 99 | 1006.2 |
| 20260506234443 | 13 | 352 | 0.0 | 0.0 | 0.00 | 0.61 | 0.61 | 99 | 1034.7 |
| 20260506234003 | 13 | 183 | 1.6 | 3.2 | 0.00 | 0.00 | 0.61 | 99 | 1006.0 |
| 20260506233941 | 13 | 191 | 1.6 | 1.6 | 0.00 | 0.61 | 0.61 | 99 | 1034.9 |
| 20260506233503 | 13 | 205 | 3.2 | 4.8 | 0.00 | 0.00 | 0.61 | 99 | 1006.1 |
| 20260506233437 | 13 | 134 | 1.6 | 1.6 | 0.00 | 0.61 | 0.61 | 99 | 1034.9 |
| 20260506232934 | 13 | 176 | 0.0 | 1.6 | 0.00 | 0.61 | 0.61 | 99 | 1034.7 |
| 20260506232503 | 13 | 33 | 1.6 | 4.8 | 0.00 | 0.00 | 0.61 | 99 | 1006.0 |
| 20260506232430 | 13 | 176 | 0.0 | 1.6 | 0.00 | 0.61 | 0.61 | 99 | 1034.6 |
| 20260506231926 | 13 | 92 | 0.0 | 1.6 | 0.00 | 0.61 | 0.61 | 99 | 1034.8 |
| 20260506231502 | 13 | 174 | 0.0 | 0.0 | 0.00 | 0.00 | 0.61 | 99 | 1006.0 |
| 20260506231423 | 13 | 101 | 3.2 | 3.2 | 0.00 | 0.61 | 0.61 | 99 | 1034.8 |
| 20260506231003 | 13 | 169 | 1.6 | 3.2 | 0.00 | 0.00 | 0.61 | 99 | 1006.0 |
| 20260506230920 | 14 | 189 | 1.6 | 1.6 | 0.00 | 0.61 | 0.61 | 99 | 1034.8 |
| 20260506230502 | 13 | 172 | 1.6 | 3.2 | 0.00 | 0.00 | 0.61 | 99 | 1006.0 |
| 20260506230417 | 13 | 49 | 0.0 | 1.6 | 0.00 | 0.61 | 0.61 | 99 | 1034.5 |
| 20260506230002 | 13 | 172 | 3.2 | 4.8 | 0.00 | 0.00 | 0.61 | 99 | 1006.1 |
| 20260506225914 | 13 | 66 | 0.0 | 1.6 | 0.13 | 0.61 | 0.61 | 99 | 1034.7 |
| 20260506225503 | 13 | 135 | 1.6 | 4.8 | 0.10 | 0.00 | 0.61 | 99 | 1006.0 |
| 20260506225411 | 13 | 187 | 4.8 | 8.0 | 0.13 | 0.61 | 0.61 | 99 | 1034.8 |
| 20260506224908 | 13 | 170 | 0.0 | 1.6 | 0.00 | 0.61 | 0.61 | 99 | 1034.7 |
| 20260506224503 | 13 | 190 | 4.8 | 6.4 | 0.18 | 0.00 | 0.58 | 99 | 1005.9 |
| 20260506224405 | 13 | 182 | 1.6 | 3.2 | 0.18 | 0.61 | 0.61 | 99 | 1034.9 |
| 20260506224003 | 13 | 201 | 1.6 | 3.2 | 0.28 | 0.00 | 0.58 | 99 | 1006.2 |
| 20260506223901 | 13 | 182 | 1.6 | 1.6 | 0.30 | 0.61 | 0.61 | 99 | 1034.7 |
| 20260506223356 | 13 | 168 | 3.2 | 4.8 | 0.23 | 0.56 | 0.56 | 99 | 1034.7 |
| 20260506222854 | 13 | 191 | 1.6 | 1.6 | 0.13 | 0.53 | 0.53 | 99 | 1034.7 |
| 20260506222350 | 13 | 184 | 1.6 | 1.6 | 0.23 | 0.53 | 0.53 | 99 | 1034.9 |
| 20260506222002 | 13 | 212 | 1.6 | 3.2 | 0.10 | 0.00 | 0.51 | 99 | 1006.4 |
| 20260506221848 | 13 | 171 | 3.2 | 3.2 | 0.13 | 0.51 | 0.51 | 99 | 1034.9 |
| 20260506221345 | 13 | 189 | 1.6 | 1.6 | 0.00 | 0.48 | 0.48 | 99 | 1035.1 |
| 20260506220842 | 13 | 60 | 1.6 | 1.6 | 0.00 | 0.48 | 0.48 | 99 | 1035.0 |
| 20260506220338 | 13 | 190 | 0.0 | 0.0 | 0.00 | 0.48 | 0.48 | 99 | 1035.0 |
| 20260506220002 | 13 | 157 | 3.2 | 4.8 | 0.00 | 0.00 | 0.48 | 99 | 1006.4 |
| 20260506215835 | 13 | 195 | 1.6 | 3.2 | 0.00 | 0.48 | 0.48 | 99 | 1035.0 |
| 20260506215503 | 13 | 187 | 4.8 | 6.4 | 0.00 | 0.00 | 0.48 | 99 | 1006.5 |
| 20260506215330 | 13 | 200 | 4.8 | 4.8 | 0.00 | 0.48 | 0.48 | 99 | 1035.3 |
| 20260506215002 | 13 | 200 | 3.2 | 6.4 | 0.00 | 0.00 | 0.48 | 99 | 1006.5 |
| 20260506214826 | 14 | 159 | 1.6 | 1.6 | 0.00 | 0.48 | 0.48 | 99 | 1035.1 |
| 20260506214323 | 14 | 168 | 0.0 | 0.0 | 0.18 | 0.48 | 0.48 | 99 | 1035.1 |
| 20260506213822 | 14 | 196 | 1.6 | 1.6 | 0.30 | 0.48 | 0.48 | 99 | 1035.2 |
| 20260506213502 | 14 | 177 | 0.0 | 0.0 | 0.23 | 0.00 | 0.46 | 99 | 1006.3 |
| 20260506213319 | 14 | 183 | 0.0 | 0.0 | 0.23 | 0.46 | 0.46 | 99 | 1035.0 |
| 20260506212816 | 14 | 192 | 0.0 | 1.6 | 0.13 | 0.43 | 0.43 | 98 | 1035.4 |
| 20260506212502 | 14 | 195 | 4.8 | 6.4 | 0.00 | 0.00 | 0.41 | 98 | 1006.6 |
| 20260506212312 | 14 | 187 | 1.6 | 1.6 | 0.00 | 0.43 | 0.43 | 98 | 1035.7 |
| 20260506211807 | 14 | 178 | 1.6 | 1.6 | 0.00 | 0.43 | 0.43 | 98 | 1035.3 |
| 20260506211502 | 14 | 161 | 1.6 | 3.2 | 0.00 | 0.00 | 0.41 | 98 | 1006.8 |
| 20260506211303 | 14 | 188 | 4.8 | 4.8 | 0.00 | 0.43 | 0.43 | 98 | 1035.3 |
| 20260506211003 | 14 | 134 | 4.8 | 6.4 | 0.00 | 0.00 | 0.41 | 98 | 1006.7 |
| 20260506210801 | 14 | 182 | 0.0 | 1.6 | 0.00 | 0.43 | 0.43 | 98 | 1035.5 |
| 20260506210257 | 14 | 193 | 4.8 | 4.8 | 0.00 | 0.43 | 0.43 | 98 | 1035.3 |
| 20260506210002 | 14 | 12 | 1.6 | 4.8 | 0.00 | 0.00 | 0.41 | 98 | 1006.6 |
| 20260506205754 | 14 | 181 | 3.2 | 3.2 | 0.00 | 0.43 | 0.43 | 98 | 1035.7 |
| 20260506205503 | 14 | 165 | 1.6 | 3.2 | 0.00 | 0.00 | 0.41 | 98 | 1006.7 |
| 20260506205250 | 14 | 88 | 1.6 | 3.2 | 0.13 | 0.43 | 0.43 | 98 | 1035.5 |
| 20260506205002 | 14 | 209 | 3.2 | 4.8 | 0.10 | 0.00 | 0.41 | 98 | 1006.9 |
| 20260506204747 | 14 | 203 | 3.2 | 3.2 | 0.13 | 0.43 | 0.43 | 98 | 1035.6 |
| 20260506204503 | 14 | 85 | 1.6 | 3.2 | 0.10 | 0.00 | 0.41 | 98 | 1006.8 |
| 20260506204245 | 14 | 201 | 1.6 | 1.6 | 0.00 | 0.41 | 0.41 | 98 | 1035.5 |
| 20260506203742 | 14 | 95 | 1.6 | 1.6 | 0.00 | 0.41 | 0.41 | 97 | 1035.7 |
| 20260506203239 | 14 | 211 | 1.6 | 3.2 | 0.00 | 0.41 | 0.41 | 97 | 1035.9 |
| 20260506203002 | 14 | 132 | 1.6 | 3.2 | 0.00 | 0.00 | 0.38 | 97 | 1007.2 |
| 20260506202736 | 14 | 84 | 1.6 | 3.2 | 0.00 | 0.41 | 0.41 | 97 | 1035.7 |
| 20260506202503 | 14 | 174 | 6.4 | 8.0 | 0.00 | 0.00 | 0.38 | 97 | 1007.0 |
| 20260506202233 | 14 | 201 | 0.0 | 1.6 | 0.00 | 0.41 | 0.41 | 97 | 1035.5 |
| 20260506202002 | 14 | 183 | 3.2 | 4.8 | 0.00 | 0.00 | 0.38 | 97 | 1007.2 |
| 20260506201730 | 14 | 234 | 3.2 | 3.2 | 0.00 | 0.41 | 0.41 | 97 | 1035.8 |
| 20260506201503 | 14 | 188 | 1.6 | 3.2 | 0.10 | 0.00 | 0.38 | 97 | 1007.0 |
| 20260506201226 | 14 | 191 | 6.4 | 8.0 | 0.13 | 0.41 | 0.41 | 97 | 1036.0 |
| 20260506201002 | 14 | 162 | 1.6 | 3.2 | 0.10 | 0.00 | 0.38 | 97 | 1007.1 |
| 20260506200723 | 14 | 224 | 4.8 | 4.8 | 0.13 | 0.41 | 0.41 | 97 | 1035.9 |
| 20260506200502 | 14 | 212 | 6.4 | 8.0 | 0.18 | 0.00 | 0.38 | 97 | 1007.1 |
| 20260506200220 | 14 | 192 | 1.6 | 1.6 | 0.18 | 0.38 | 0.38 | 97 | 1035.8 |
| 20260506200003 | 14 | 191 | 4.8 | 6.4 | 0.18 | 0.00 | 0.38 | 97 | 1007.2 |
| 20260506195717 | 14 | 211 | 1.6 | 1.6 | 0.18 | 0.38 | 0.38 | 97 | 1035.9 |
| 20260506195502 | 14 | 6 | 3.2 | 4.8 | 0.00 | 0.00 | 0.33 | 97 | 1007.3 |
| 20260506195213 | 14 | 196 | 3.2 | 3.2 | 0.13 | 0.36 | 0.36 | 97 | 1035.9 |
| 20260506194711 | 14 | 201 | 1.6 | 3.2 | 0.13 | 0.36 | 0.36 | 96 | 1035.7 |
| 20260506194502 | 14 | 178 | 1.6 | 3.2 | 0.10 | 0.00 | 0.33 | 96 | 1007.2 |
| 20260506194207 | 14 | 191 | 3.2 | 4.8 | 0.13 | 0.33 | 0.33 | 96 | 1036.1 |
| 20260506194002 | 14 | 176 | 1.6 | 3.2 | 0.10 | 0.00 | 0.33 | 96 | 1007.2 |
| 20260506193705 | 14 | 182 | 4.8 | 4.8 | 0.23 | 0.33 | 0.33 | 95 | 1036.0 |
| 20260506193503 | 14 | 156 | 4.8 | 6.4 | 0.23 | 0.00 | 0.33 | 95 | 1007.2 |
| 20260506193201 | 15 | 191 | 4.8 | 4.8 | 0.13 | 0.30 | 0.30 | 95 | 1036.0 |
| 20260506193002 | 15 | 115 | 3.2 | 4.8 | 0.10 | 0.00 | 0.30 | 95 | 1007.4 |
| 20260506192658 | 15 | 176 | 1.6 | 3.2 | 0.13 | 0.28 | 0.28 | 95 | 1035.9 |
| 20260506192503 | 15 | 146 | 1.6 | 3.2 | 0.10 | 0.00 | 0.28 | 95 | 1007.3 |
| 20260506192154 | 15 | 145 | 1.6 | 1.6 | 0.13 | 0.28 | 0.28 | 94 | 1036.1 |
| 20260506192002 | 15 | 146 | 4.8 | 6.4 | 0.28 | 0.00 | 0.28 | 94 | 1007.4 |
| 20260506191651 | 15 | 183 | 3.2 | 3.2 | 0.18 | 0.28 | 0.28 | 94 | 1036.1 |
| 20260506191502 | 15 | 200 | 3.2 | 4.8 | 0.18 | 0.00 | 0.25 | 94 | 1007.1 |
| 20260506191147 | 15 | 196 | 3.2 | 3.2 | 0.13 | 0.23 | 0.23 | 94 | 1036.4 |
| 20260506190645 | 15 | 155 | 3.2 | 8.0 | 0.23 | 0.23 | 0.23 | 93 | 1036.2 |
| 20260506190141 | 15 | 187 | 0.0 | 0.0 | 0.13 | 0.23 | 0.23 | 93 | 1036.2 |
| 20260506190002 | 15 | 209 | 3.2 | 4.8 | 0.10 | 0.00 | 0.20 | 93 | 1007.6 |
| 20260506185638 | 15 | 178 | 1.6 | 1.6 | 0.13 | 0.20 | 0.20 | 92 | 1036.1 |
| 20260506185134 | 15 | 196 | 3.2 | 4.8 | 0.13 | 0.20 | 0.20 | 92 | 1035.9 |
| 20260506185003 | 15 | 197 | 3.2 | 4.8 | 0.10 | 0.00 | 0.18 | 92 | 1007.6 |
| 20260506184632 | 15 | 179 | 1.6 | 1.6 | 0.18 | 0.18 | 0.18 | 91 | 1036.0 |
| 20260506184503 | 15 | 159 | 1.6 | 3.2 | 0.18 | 0.00 | 0.18 | 91 | 1007.3 |
| 20260506184129 | 15 | 177 | 1.6 | 1.6 | 0.18 | 0.18 | 0.18 | 91 | 1036.1 |
| 20260506184002 | 15 | 179 | 3.2 | 3.2 | 0.28 | 0.00 | 0.18 | 91 | 1007.6 |
| 20260506183626 | 15 | 176 | 0.0 | 1.6 | 0.23 | 0.15 | 0.15 | 90 | 1036.4 |
| 20260506183503 | 15 | 180 | 1.6 | 3.2 | 0.36 | 0.00 | 0.13 | 90 | 1007.7 |
| 20260506183122 | 15 | 227 | 4.8 | 4.8 | 0.23 | 0.13 | 0.13 | 89 | 1036.5 |
| 20260506183004 | 15 | 181 | 1.6 | 3.2 | 0.23 | 0.00 | 0.13 | 89 | 1007.8 |
| 20260506182620 | 16 | 194 | 1.6 | 3.2 | 0.13 | 0.10 | 0.10 | 88 | 1036.6 |
| 20260506182502 | 16 | 197 | 3.2 | 4.8 | 0.10 | 0.00 | 0.08 | 88 | 1007.9 |
| 20260506182116 | 16 | 129 | 0.0 | 1.6 | 0.30 | 0.10 | 0.10 | 88 | 1036.6 |
| 20260506182003 | 16 | 203 | 0.0 | 0.0 | 0.28 | 0.00 | 0.08 | 87 | 1007.9 |
| 20260506181614 | 16 | 162 | 0.0 | 1.6 | 0.18 | 0.08 | 0.08 | 87 | 1036.8 |
| 20260506181502 | 16 | 174 | 1.6 | 3.2 | 0.18 | 0.00 | 0.05 | 86 | 1008.0 |
| 20260506181111 | 16 | 194 | 0.0 | 0.0 | 0.13 | 0.05 | 0.05 | 85 | 1036.8 |
| 20260506181002 | 16 | 293 | 6.4 | 8.0 | 0.10 | 0.00 | 0.03 | 85 | 1008.1 |
| 20260506180608 | 16 | 143 | 0.0 | 1.6 | 0.13 | 0.05 | 0.05 | 85 | 1036.8 |
| 20260506180503 | 16 | 184 | 0.0 | 0.0 | 0.23 | 0.00 | 0.03 | 84 | 1008.3 |
| 20260506180104 | 16 | 95 | 1.6 | 1.6 | 0.13 | 0.03 | 0.03 | 83 | 1036.9 |
| 20260506175601 | 17 | 117 | 1.6 | 1.6 | 0.13 | 0.03 | 0.03 | 80 | 1036.8 |
| 20260506175502 | 17 | 222 | 4.8 | 6.4 | 0.00 | 0.00 | 0.00 | 79 | 1008.4 |
| 20260506175057 | 17 | 215 | 3.2 | 3.2 | 0.00 | 0.00 | 0.00 | 78 | 1037.0 |
| 20260506175003 | 17 | 3 | 4.8 | 6.4 | 0.00 | 0.00 | 0.00 | 76 | 1008.3 |
| 20260506174556 | 18 | 197 | 1.6 | 3.2 | 0.00 | 0.00 | 0.00 | 74 | 1037.1 |
| 20260506174502 | 18 | 192 | 6.4 | 6.4 | 0.00 | 0.00 | 0.00 | 74 | 1008.3 |
| 20260506174051 | 18 | 183 | 8.0 | 11.3 | 0.00 | 0.00 | 0.00 | 71 | 1037.0 |
| 20260506173550 | 19 | 176 | 6.4 | 11.3 | 0.00 | 0.00 | 0.00 | 69 | 1037.0 |
| 20260506173504 | 20 | 249 | 6.4 | 8.0 | 0.00 | 0.00 | 0.00 | 68 | 1008.4 |
| 20260506173046 | 20 | 209 | 3.2 | 4.8 | 0.00 | 0.00 | 0.00 | 66 | 1037.1 |
| 20260506173002 | 20 | 53 | 4.8 | 8.0 | 0.00 | 0.00 | 0.00 | 65 | 1008.4 |
| 20260506172544 | 20 | 245 | 1.6 | 1.6 | 0.00 | 0.00 | 0.00 | 64 | 1036.9 |
| 20260506172502 | 20 | 245 | 3.2 | 3.2 | 0.00 | 0.00 | 0.00 | 64 | 1008.2 |
| 20260506172040 | 20 | 209 | 3.2 | 4.8 | 0.00 | 0.00 | 0.00 | 63 | 1036.7 |
| 20260506172003 | 20 | 209 | 4.8 | 6.4 | 0.00 | 0.00 | 0.00 | 63 | 1008.0 |
| 20260506171537 | 20 | 202 | 4.8 | 9.7 | 0.00 | 0.00 | 0.00 | 62 | 1037.0 |
| 20260506171503 | 20 | 202 | 4.8 | 9.7 | 0.00 | 0.00 | 0.00 | 62 | 1008.3 |
| 20260506171035 | 20 | 208 | 4.8 | 4.8 | 0.00 | 0.00 | 0.00 | 62 | 1036.5 |
| 20260506171002 | 20 | 208 | 4.8 | 6.4 | 0.00 | 0.00 | 0.00 | 62 | 1007.8 |
| 20260506170532 | 20 | 222 | 4.8 | 8.0 | 0.00 | 0.00 | 0.00 | 62 | 1036.8 |
| 20260506170502 | 20 | 222 | 4.8 | 8.0 | 0.00 | 0.00 | 0.00 | 62 | 1008.1 |
| 20260506170030 | 21 | 196 | 6.4 | 11.3 | 0.00 | 0.00 | 0.00 | 60 | 1036.6 |
| 20260506170003 | 21 | 196 | 6.4 | 11.3 | 0.00 | 0.00 | 0.00 | 60 | 1007.9 |
| 20260506165528 | 21 | 114 | 6.4 | 9.7 | 0.00 | 0.00 | 0.00 | 61 | 1036.7 |
| 20260506165502 | 21 | 114 | 6.4 | 9.7 | 0.00 | 0.00 | 0.00 | 61 | 1008.0 |
| 20260506165024 | 21 | 198 | 6.4 | 9.7 | 0.00 | 0.00 | 0.00 | 60 | 1036.9 |
| 20260506165002 | 21 | 198 | 6.4 | 9.7 | 0.00 | 0.00 | 0.00 | 60 | 1008.2 |
| 20260506164521 | 21 | 38 | 4.8 | 4.8 | 0.00 | 0.00 | 0.00 | 59 | 1036.8 |
| 20260506164503 | 21 | 38 | 4.8 | 6.4 | 0.00 | 0.00 | 0.00 | 59 | 1008.1 |
| 20260506164018 | 21 | 239 | 6.4 | 8.0 | 0.00 | 0.00 | 0.00 | 59 | 1036.6 |
| 20260506164002 | 21 | 239 | 6.4 | 8.0 | 0.00 | 0.00 | 0.00 | 59 | 1007.9 |
| 20260506163514 | 21 | 206 | 8.0 | 9.7 | 0.00 | 0.00 | 0.00 | 59 | 1036.6 |
| 20260506163010 | 21 | 193 | 3.2 | 8.0 | 0.00 | 0.00 | 0.00 | 60 | 1036.9 |
| 20260506163002 | 21 | 193 | 4.8 | 8.0 | 0.00 | 0.00 | 0.00 | 60 | 1008.2 |
| 20260506162506 | 21 | 193 | 1.6 | 1.6 | 0.00 | 0.00 | 0.00 | 60 | 1037.0 |
| 20260506162004 | 21 | 171 | 4.8 | 8.0 | 0.00 | 0.00 | 0.00 | 61 | 1037.2 |
| 20260506162002 | 21 | 171 | 4.8 | 8.0 | 0.00 | 0.00 | 0.00 | 61 | 1008.5 |
| 20260506161502 | 21 | 82 | 4.8 | 8.0 | 0.00 | 0.00 | 0.00 | 61 | 1008.5 |
| 20260506161003 | 21 | 188 | 6.4 | 8.0 | 0.00 | 0.00 | 0.00 | 61 | 1008.5 |
| 20260506160958 | 21 | 188 | 6.4 | 8.0 | 0.00 | 0.00 | 0.00 | 61 | 1037.2 |
| 20260506160502 | 20 | 180 | 3.2 | 3.2 | 0.00 | 0.00 | 0.00 | 61 | 1008.5 |
| 20260506160455 | 20 | 180 | 1.6 | 1.6 | 0.00 | 0.00 | 0.00 | 61 | 1037.2 |
| 20260506160003 | 20 | 151 | 1.6 | 3.2 | 0.00 | 0.00 | 0.00 | 62 | 1008.4 |
| 20260506155952 | 20 | 151 | 1.6 | 1.6 | 0.00 | 0.00 | 0.00 | 62 | 1037.1 |
| 20260506155502 | 20 | 194 | 4.8 | 6.4 | 0.00 | 0.00 | 0.00 | 63 | 1008.8 |
| 20260506155450 | 20 | 194 | 3.2 | 4.8 | 0.00 | 0.00 | 0.00 | 63 | 1037.5 |
| 20260506155002 | 20 | 218 | 9.7 | 11.3 | 0.00 | 0.00 | 0.00 | 62 | 1008.9 |
| 20260506154503 | 20 | 205 | 3.2 | 4.8 | 0.00 | 0.00 | 0.00 | 63 | 1008.9 |
| 20260506154002 | 20 | 92 | 3.2 | 3.2 | 0.00 | 0.00 | 0.00 | 62 | 1008.9 |
| 20260506153622 | 20 | 178 | 1.6 | 1.6 | 0.00 | 0.00 | 0.00 | 63 | 1037.7 |
| 20260506153503 | 20 | 160 | 3.2 | 4.8 | 0.00 | 0.00 | 0.00 | 63 | 1009.1 |
| 20260506153120 | 20 | 162 | 3.2 | 4.8 | 0.00 | 0.00 | 0.00 | 63 | 1037.7 |
| 20260506153002 | 20 | 184 | 4.8 | 6.4 | 0.00 | 0.00 | 0.00 | 64 | 1009.2 |
| 20260506152617 | 20 | 93 | 1.6 | 3.2 | 0.00 | 0.00 | 0.00 | 64 | 1037.6 |
| 20260506152503 | 20 | 196 | 3.2 | 4.8 | 0.00 | 0.00 | 0.00 | 64 | 1008.9 |
| 20260506152115 | 20 | 162 | 0.0 | 1.6 | 0.00 | 0.00 | 0.00 | 64 | 1037.9 |
| 20260506152002 | 20 | 112 | 4.8 | 6.4 | 0.00 | 0.00 | 0.00 | 63 | 1009.1 |
| 20260506151613 | 20 | 168 | 4.8 | 8.0 | 0.00 | 0.00 | 0.00 | 64 | 1038.1 |
| 20260506151503 | 20 | 207 | 4.8 | 8.0 | 0.00 | 0.00 | 0.00 | 64 | 1009.2 |
| 20260506151109 | 20 | 178 | 4.8 | 8.0 | 0.00 | 0.00 | 0.00 | 63 | 1037.8 |
| 20260506150606 | 20 | 193 | 1.6 | 3.2 | 0.00 | 0.00 | 0.00 | 64 | 1037.9 |
| 20260506150503 | 20 | 203 | 6.4 | 8.0 | 0.00 | 0.00 | 0.00 | 63 | 1009.5 |
| 20260506150003 | 20 | 212 | 4.8 | 6.4 | 0.00 | 0.00 | 0.00 | 64 | 1009.5 |
| 20260506145600 | 20 | 258 | 8.0 | 11.3 | 0.00 | 0.00 | 0.00 | 63 | 1038.3 |
| 20260506145057 | 20 | 210 | 4.8 | 4.8 | 0.00 | 0.00 | 0.00 | 64 | 1038.2 |
| 20260506145002 | 20 | 350 | 4.8 | 6.4 | 0.00 | 0.00 | 0.00 | 64 | 1009.3 |
| 20260506144554 | 20 | 150 | 1.6 | 3.2 | 0.00 | 0.00 | 0.00 | 63 | 1038.3 |
| 20260506144503 | 20 | 191 | 3.2 | 6.4 | 0.00 | 0.00 | 0.00 | 63 | 1009.4 |
| 20260506144051 | 20 | 177 | 1.6 | 3.2 | 0.00 | 0.00 | 0.00 | 64 | 1038.1 |
| 20260506144003 | 20 | 158 | 3.2 | 4.8 | 0.00 | 0.00 | 0.00 | 64 | 1009.6 |
| 20260506143549 | 20 | 204 | 9.7 | 16.1 | 0.00 | 0.00 | 0.00 | 65 | 1038.3 |
| 20260506143503 | 20 | 187 | 1.6 | 3.2 | 0.00 | 0.00 | 0.00 | 66 | 1009.6 |
| 20260506143047 | 20 | 187 | 4.8 | 8.0 | 0.00 | 0.00 | 0.00 | 67 | 1038.7 |
| 20260506143002 | 20 | 216 | 4.8 | 6.4 | 0.00 | 0.00 | 0.00 | 67 | 1009.6 |
| 20260506142544 | 19 | 207 | 1.6 | 1.6 | 0.00 | 0.00 | 0.00 | 68 | 1038.7 |
| 20260506142503 | 19 | 207 | 3.2 | 3.2 | 0.00 | 0.00 | 0.00 | 68 | 1009.9 |
| 20260506142042 | 19 | 156 | 4.8 | 4.8 | 0.00 | 0.00 | 0.00 | 67 | 1038.2 |
| 20260506142003 | 19 | 156 | 4.8 | 6.4 | 0.00 | 0.00 | 0.00 | 67 | 1009.5 |
| 20260506141540 | 19 | 105 | 4.8 | 8.0 | 0.00 | 0.00 | 0.00 | 67 | 1038.3 |
| 20260506141038 | 19 | 242 | 3.2 | 3.2 | 0.00 | 0.00 | 0.00 | 68 | 1038.4 |
| 20260506141002 | 19 | 242 | 3.2 | 4.8 | 0.00 | 0.00 | 0.00 | 68 | 1009.7 |
| 20260506140535 | 18 | 179 | 4.8 | 8.0 | 0.00 | 0.00 | 0.00 | 68 | 1038.1 |
| 20260506140032 | 18 | 210 | 3.2 | 3.2 | 0.00 | 0.00 | 0.00 | 69 | 1038.3 |
| 20260506140003 | 18 | 210 | 3.2 | 4.8 | 0.00 | 0.00 | 0.00 | 69 | 1009.6 |
| 20260506135529 | 18 | 158 | 1.6 | 1.6 | 0.00 | 0.00 | 0.00 | 69 | 1038.1 |
| 20260506135503 | 18 | 158 | 1.6 | 3.2 | 0.00 | 0.00 | 0.00 | 69 | 1009.4 |
| 20260506135025 | 19 | 12 | 1.6 | 3.2 | 0.00 | 0.00 | 0.00 | 69 | 1038.1 |
| 20260506135002 | 19 | 12 | 3.2 | 4.8 | 0.00 | 0.00 | 0.00 | 69 | 1009.4 |
| 20260506134521 | 19 | 203 | 4.8 | 9.7 | 0.00 | 0.00 | 0.00 | 69 | 1038.2 |
| 20260506134018 | 18 | 99 | 3.2 | 4.8 | 0.00 | 0.00 | 0.00 | 71 | 1038.4 |
| 20260506134002 | 18 | 99 | 3.2 | 6.4 | 0.00 | 0.00 | 0.00 | 71 | 1009.7 |
| 20260506133515 | 18 | 253 | 8.0 | 9.7 | 0.00 | 0.00 | 0.00 | 71 | 1038.3 |
| 20260506133503 | 18 | 253 | 8.0 | 9.7 | 0.00 | 0.00 | 0.00 | 71 | 1009.6 |
| 20260506133012 | 18 | 188 | 3.2 | 3.2 | 0.00 | 0.00 | 0.00 | 71 | 1038.2 |
| 20260506133002 | 18 | 188 | 4.8 | 4.8 | 0.00 | 0.00 | 0.00 | 71 | 1009.5 |
| 20260506132509 | 18 | 175 | 6.4 | 8.0 | 0.00 | 0.00 | 0.00 | 72 | 1038.3 |
| 20260506132503 | 18 | 175 | 6.4 | 8.0 | 0.00 | 0.00 | 0.00 | 72 | 1009.6 |
| 20260506132006 | 18 | 199 | 3.2 | 4.8 | 0.00 | 0.00 | 0.00 | 72 | 1038.4 |
| 20260506132002 | 18 | 199 | 3.2 | 6.4 | 0.00 | 0.00 | 0.00 | 72 | 1009.7 |
| 20260506131503 | 18 | 95 | 4.8 | 6.4 | 0.00 | 0.00 | 0.00 | 73 | 1009.9 |
| 20260506131002 | 17 | 211 | 4.8 | 8.0 | 0.00 | 0.00 | 0.00 | 73 | 1010.2 |
| 20260506131000 | 17 | 211 | 4.8 | 8.0 | 0.00 | 0.00 | 0.00 | 73 | 1039.0 |
| 20260506130503 | 17 | 200 | 4.8 | 6.4 | 0.00 | 0.00 | 0.00 | 74 | 1010.2 |
| 20260506130456 | 17 | 200 | 4.8 | 4.8 | 0.00 | 0.00 | 0.00 | 74 | 1039.0 |
| 20260506130004 | 17 | 108 | 3.2 | 4.8 | 0.00 | 0.00 | 0.00 | 75 | 1010.3 |
| 20260506125954 | 17 | 108 | 1.6 | 3.2 | 0.00 | 0.00 | 0.00 | 75 | 1039.1 |
| 20260506125502 | 17 | 218 | 1.6 | 3.2 | 0.00 | 0.00 | 0.00 | 76 | 1010.2 |
| 20260506125452 | 17 | 218 | 1.6 | 1.6 | 0.00 | 0.00 | 0.00 | 76 | 1039.0 |
| 20260506125002 | 17 | 82 | 3.2 | 6.4 | 0.00 | 0.00 | 0.00 | 76 | 1010.1 |
| 20260506124950 | 17 | 82 | 3.2 | 4.8 | 0.00 | 0.00 | 0.00 | 76 | 1038.9 |
| 20260506124503 | 17 | 226 | 3.2 | 4.8 | 0.00 | 0.00 | 0.00 | 76 | 1010.0 |
| 20260506124447 | 17 | 226 | 1.6 | 3.2 | 0.00 | 0.00 | 0.00 | 76 | 1038.8 |
| 20260506123945 | 16 | 207 | 1.6 | 3.2 | 0.00 | 0.00 | 0.00 | 77 | 1039.1 |
| 20260506123443 | 16 | 202 | 3.2 | 4.8 | 0.00 | 0.00 | 0.00 | 77 | 1038.7 |
| 20260506123003 | 16 | 170 | 3.2 | 4.8 | 0.00 | 0.00 | 0.00 | 77 | 1010.2 |
| 20260506122940 | 16 | 209 | 3.2 | 3.2 | 0.00 | 0.00 | 0.00 | 76 | 1039.1 |
| 20260506122502 | 17 | 186 | 3.2 | 4.8 | 0.00 | 0.00 | 0.00 | 76 | 1009.9 |
| 20260506122437 | 16 | 188 | 1.6 | 3.2 | 0.00 | 0.00 | 0.00 | 76 | 1038.8 |
| 20260506122003 | 16 | 166 | 1.6 | 3.2 | 0.00 | 0.00 | 0.00 | 77 | 1009.9 |
| 20260506121935 | 16 | 193 | 4.8 | 4.8 | 0.00 | 0.00 | 0.00 | 77 | 1038.7 |
| 20260506121503 | 16 | 206 | 6.4 | 8.0 | 0.00 | 0.00 | 0.00 | 78 | 1009.8 |
| 20260506121432 | 16 | 183 | 4.8 | 8.0 | 0.00 | 0.00 | 0.00 | 78 | 1038.8 |
| 20260506121002 | 16 | 186 | 3.2 | 4.8 | 0.00 | 0.00 | 0.00 | 78 | 1010.2 |
| 20260506120929 | 16 | 191 | 1.6 | 3.2 | 0.00 | 0.00 | 0.00 | 78 | 1039.0 |
| 20260506120502 | 16 | 182 | 6.4 | 6.4 | 0.00 | 0.00 | 0.00 | 78 | 1010.1 |
| 20260506120426 | 16 | 119 | 1.6 | 3.2 | 0.00 | 0.00 | 0.00 | 78 | 1038.9 |
| 20260506120003 | 16 | 185 | 3.2 | 4.8 | 0.00 | 0.00 | 0.00 | 78 | 1010.0 |
| 20260506115924 | 16 | 173 | 1.6 | 3.2 | 0.00 | 0.00 | 0.00 | 78 | 1038.8 |
| 20260506115503 | 16 | 158 | 3.2 | 4.8 | 0.00 | 0.00 | 0.00 | 79 | 1010.2 |
| 20260506115421 | 16 | 149 | 1.6 | 1.6 | 0.00 | 0.00 | 0.00 | 79 | 1039.0 |
| 20260506114920 | 16 | 98 | 3.2 | 4.8 | 0.00 | 0.00 | 0.00 | 79 | 1038.8 |
| 20260506114502 | 16 | 187 | 3.2 | 3.2 | 0.00 | 0.00 | 0.00 | 78 | 1010.0 |
| 20260506114417 | 16 | 175 | 1.6 | 3.2 | 0.00 | 0.00 | 0.00 | 79 | 1038.8 |
| 20260506114003 | 16 | 191 | 4.8 | 6.4 | 0.00 | 0.00 | 0.00 | 78 | 1009.9 |
| 20260506113916 | 16 | 191 | 3.2 | 3.2 | 0.00 | 0.00 | 0.00 | 79 | 1038.9 |
| 20260506113502 | 15 | 14 | 4.8 | 6.4 | 0.00 | 0.00 | 0.00 | 80 | 1010.3 |
| 20260506113413 | 15 | 41 | 3.2 | 4.8 | 0.00 | 0.00 | 0.00 | 80 | 1038.8 |
| 20260506113003 | 15 | 189 | 1.6 | 3.2 | 0.00 | 0.00 | 0.00 | 80 | 1010.4 |
| 20260506112909 | 15 | 191 | 1.6 | 1.6 | 0.00 | 0.00 | 0.00 | 80 | 1039.0 |
| 20260506112502 | 15 | 185 | 1.6 | 3.2 | 0.00 | 0.00 | 0.00 | 81 | 1010.3 |
| 20260506112407 | 15 | 197 | 3.2 | 3.2 | 0.00 | 0.00 | 0.00 | 81 | 1039.1 |
| 20260506112002 | 15 | 186 | 3.2 | 3.2 | 0.00 | 0.00 | 0.00 | 82 | 1010.3 |
| 20260506111904 | 15 | 173 | 1.6 | 3.2 | 0.00 | 0.00 | 0.00 | 82 | 1039.1 |
| 20260506111402 | 15 | 166 | 1.6 | 1.6 | 0.00 | 0.00 | 0.00 | 82 | 1039.1 |
| 20260506111003 | 15 | 137 | 1.6 | 3.2 | 0.00 | 0.00 | 0.00 | 81 | 1010.4 |
| 20260506110859 | 15 | 172 | 3.2 | 3.2 | 0.00 | 0.00 | 0.00 | 81 | 1039.3 |
| 20260506110503 | 15 | 242 | 1.6 | 3.2 | 0.00 | 0.00 | 0.00 | 81 | 1010.6 |
| 20260506110356 | 15 | 190 | 1.6 | 1.6 | 0.00 | 0.00 | 0.00 | 81 | 1039.4 |
| 20260506110002 | 15 | 191 | 4.8 | 4.8 | 0.00 | 0.00 | 0.00 | 81 | 1010.4 |
| 20260506105853 | 15 | 200 | 3.2 | 4.8 | 0.00 | 0.00 | 0.00 | 81 | 1039.2 |
| 20260506105503 | 15 | 116 | 3.2 | 4.8 | 0.00 | 0.00 | 0.00 | 82 | 1010.1 |
| 20260506105349 | 15 | 162 | 1.6 | 1.6 | 0.00 | 0.00 | 0.00 | 82 | 1039.2 |
| 20260506105003 | 15 | 172 | 3.2 | 4.8 | 0.00 | 0.00 | 0.00 | 82 | 1010.2 |
| 20260506104847 | 15 | 175 | 3.2 | 3.2 | 0.00 | 0.00 | 0.00 | 82 | 1039.2 |
| 20260506104502 | 15 | 201 | 3.2 | 4.8 | 0.00 | 0.00 | 0.00 | 82 | 1010.5 |
| 20260506104344 | 14 | 149 | 1.6 | 3.2 | 0.00 | 0.00 | 0.00 | 82 | 1038.9 |